This is the latest recevied weather packets stored in our database for station/object DL3GCR-10. If no packets are shown the sender has not sent any weather packets the latest 10 day(s).
| Time | Temp. | Humidity | Pressure | Rain* | Wind** | Luminosity | Snow |
|---|---|---|---|---|---|---|---|
| 1777291616 | 24.44° C | 28% | 1021.8 hPa | - | - | - | - |
| 1777290716 | 23.89° C | 30% | 1021.8 hPa | - | - | - | - |
| 1777289816 | 23.89° C | 31% | 1022.1 hPa | - | - | - | - |
| 1777288915 | 22.78° C | 32% | 1022.1 hPa | - | - | - | - |
| 1777288014 | 22.78° C | 33% | 1022.2 hPa | - | - | - | - |
| 1777287114 | 22.22° C | 35% | 1022.3 hPa | - | - | - | - |
| 1777286214 | 21.11° C | 35% | 1022.7 hPa | - | - | - | - |
| 1777285319 | 20.56° C | 39% | 1022.7 hPa | - | - | - | - |
| 1777284419 | 19.44° C | 39% | 1023 hPa | - | - | - | - |
| 1777283519 | 18.33° C | 40% | 1023.1 hPa | - | - | - | - |
| 1777282618 | 17.78° C | 40% | 1023.2 hPa | - | - | - | - |
| 1777281718 | 16.67° C | 42% | 1023.4 hPa | - | - | - | - |
| 1777280817 | 15.56° C | 45% | 1023.6 hPa | - | - | - | - |
| 1777279917 | 15° C | 45% | 1023.6 hPa | - | - | - | - |
| 1777279017 | 13.89° C | 48% | 1023.8 hPa | - | - | - | - |
| 1777278117 | 13.33° C | 51% | 1023.8 hPa | - | - | - | - |
| 1777277217 | 12.78° C | 53% | 1023.7 hPa | - | - | - | - |
| 1777276316 | 12.78° C | 53% | 1023.8 hPa | - | - | - | - |
| 1777275416 | 12.22° C | 56% | 1023.6 hPa | - | - | - | - |
| 1777274516 | 11.11° C | 56% | 1023.8 hPa | - | - | - | - |
| 1777273616 | 10.56° C | 59% | 1023.7 hPa | - | - | - | - |
| 1777272716 | 10° C | 60% | 1023.8 hPa | - | - | - | - |
| 1777271816 | 9.44° C | 61% | 1023.8 hPa | - | - | - | - |
| 1777270915 | 8.89° C | 61% | 1023.8 hPa | - | - | - | - |
| 1777270015 | 8.89° C | 62% | 1023.9 hPa | - | - | - | - |
* Rain since midnight (hover to see other rain measurements)
** Current wind speed in m/s (hover to see current wind gust speed)